H1 CPF 2 NER 2024 10 3 9 277 01 glonass129 H2 1106402 9129 37868 2024 10 3 0 0 0 2024 10 6 23 45 0 900 1 1 0 0 0 1 H9 10 0 60586 0.00000 0 -880240.017 23847417.331 9124452.601 10 0 60586 900.00000 0 -959699.154 22545132.144 11983930.506 10 0 60586 1800.00000 0 -1216745.014 20925603.870 14611766.869 10 0 60586 2700.00000 0 -1685922.831 19038889.232 16957211.181 10 0 60586 3600.00000 0 -2391489.385 16942884.868 18974954.866 10 0 60586 4500.00000 0 -3346166.448 14701029.909 20625991.550 10 0 60586 5400.00000 0 -4550381.026 12379796.827 21878359.370 10 0 60586 6300.00000 0 -5992024.789 10046072.989 22707752.251 10 0 60586 7200.00000 0 -7646744.063 7764539.577 23097989.270 10 0 60586 8100.00000 0 -9478750.240 5595154.663 23041333.415 10 0 60586 9000.00000 0 -11442119.359 3590843.082 22538653.393 10 0 60586 9900.00000 0 -13482529.549 1795487.707 21599424.569 10 0 60586 10800.00000 0 -15539366.906 242304.697 20241567.664 10 0 60586 11700.00000 0 -17548114.846 -1047329.917 18491126.502 10 0 60586 12600.00000 0 -19442929.615 -2064553.098 16381788.913 10 0 60586 13500.00000 0 -21159296.134 -2813158.288 13954257.805 10 0 60586 14400.00000 0 -22636654.071 -3309202.424 11255482.397 10 0 60586 15300.00000 0 -23820884.140 -3580091.822 8337762.658 10 0 60586 16200.00000 0 -24666549.545 -3663184.356 5257742.906 10 0 60586 17100.00000 0 -25138796.859 -3603966.130 2075313.281 10 0 60586 18000.00000 0 -25214834.252 -3453879.524 -1147559.618 10 0 60586 18900.00000 0 -24884922.473 -3267894.941 -4348049.637 10 0 60586 19800.00000 0 -24152834.477 -3101930.256 -7463710.651 10 0 60586 20700.00000 0 -23035762.258 -3010229.121 -10433712.962 10 0 60586 21600.00000 0 -21563673.270 -3042811.547 -13200050.428 10 0 60586 22500.00000 0 -19778142.706 -3243107.400 -15708692.695 10 0 60586 23400.00000 0 -17730710.630 -3645875.713 -17910658.035 10 0 60586 24300.00000 0 -15480833.657 -4275500.344 -19762984.122 10 0 60586 25200.00000 0 -13093518.243 -5144736.149 -21229576.505 10 0 60586 26100.00000 0 -10636736.352 -6253960.155 -22281917.374 10 0 60586 27000.00000 0 -8178733.254 -7590960.240 -22899620.539 10 0 60586 27900.00000 0 -5785341.393 -9131270.528 -23070821.997 10 0 60586 28800.00000 0 -3517413.560 -10839039.099 -22792399.159 10 0 60586 29700.00000 0 -1428482.814 -12668390.848 -22070015.497 10 0 60586 30600.00000 0 437253.601 -14565227.265 -20917991.036 10 0 60586 31500.00000 0 2046543.405 -16469386.527 -19359002.660 10 0 60586 32400.00000 0 3378216.328 -18317072.312 -17423621.576 10 0 60586 33300.00000 0 4423804.148 -20043448.754 -15149698.389 10 0 60586 34200.00000 0 5187620.869 -21585292.388 -12581609.139 10 0 60586 35100.00000 0 5686302.993 -22883589.977 -9769378.162 10 0 60586 36000.00000 0 5947832.435 -23885973.938 -6767695.754 10 0 60586 36900.00000 0 6010086.103 -24548894.232 -3634850.530 10 0 60586 37800.00000 0 5918975.657 -24839437.109 -431597.566 10 0 60586 38700.00000 0 5726257.598 -24736716.098 2780015.585 10 0 60586 39600.00000 0 5487107.070 -24232778.672 5937842.485 10 0 60586 40500.00000 0 5257558.025 -23332992.242 8980828.480 10 0 60586 41400.00000 0 5091917.337 -22055894.649 11850176.372 10 0 60586 42300.00000 0 5040261.066 -20432516.296 14490465.761 10 0 60586 43200.00000 0 5146117.177 -18505202.557 16850705.938 10 0 60586 44100.00000 0 5444431.029 -16325985.223 18885303.655 10 0 60586 45000.00000 0 5959898.153 -13954569.919 20554928.724 10 0 60586 45900.00000 0 6705733.685 -11456021.653 21827262.332 10 0 60586 46800.00000 0 7682930.060 -8898242.695 22677614.938 10 0 60586 47700.00000 0 8880034.710 -6349345.287 23089402.729 10 0 60586 48600.00000 0 10273458.496 -3875025.857 23054473.859 10 0 60586 49500.00000 0 11828304.047 -1536047.523 22573278.018 10 0 60586 50400.00000 0 13499681.963 614066.435 21654875.247 10 0 60586 51300.00000 0 15234462.770 2531033.674 20316782.550 10 0 60586 52200.00000 0 16973394.285 4181425.995 18584659.402 10 0 60586 53100.00000 0 18653498.491 5543827.540 16491836.153 10 0 60586 54000.00000 0 20210649.681 6609489.249 14078692.186 10 0 60586 54900.00000 0 21582227.227 7382451.335 11391893.662 10 0 60586 55800.00000 0 22709732.152 7879127.530 8483503.755 10 0 60586 56700.00000 0 23541257.163 8127367.491 5409981.202 10 0 60586 57600.00000 0 24033704.973 8165035.935 2231085.759 10 0 60586 58500.00000 0 24154659.569 8038168.029 -991288.282 10 0 60586 59400.00000 0 23883829.113 7798779.072 -4194327.266 10 0 60586 60300.00000 0 23213997.108 7502421.979 -7315537.279 10 0 60586 61200.00000 0 22151439.219 7205597.423 -10293981.321 10 0 60586 62100.00000 0 20715786.140 6963128.365 -13071488.473 10 0 60586 63000.00000 0 18939336.782 6825612.587 -15593809.410 10 0 60586 63900.00000 0 16865849.934 6837063.664 -17811693.667 10 0 60586 64800.00000 0 14548865.177 7032842.701 -19681865.893 10 0 60586 65700.00000 0 12049624.126 7437970.447 -21167880.733 10 0 60586 66600.00000 0 9434680.258 8065892.762 -22240838.753 10 0 60586 67500.00000 0 6773298.765 8917752.617 -22879949.162 10 0 60586 68400.00000 0 4134756.414 9982199.683 -23072928.544 10 0 60586 69300.00000 0 1585655.333 11235745.348 -22816228.465 10 0 60586 70200.00000 0 -812636.635 12643647.457 -22115088.580 10 0 60586 71100.00000 0 -3006312.320 14161286.498 -20983415.448 10 0 60586 72000.00000 0 -4951122.139 15735974.093 -19443490.918 10 0 60586 72900.00000 0 -6613959.834 17309116.553 -17525517.225 10 0 60586 73800.00000 0 -7973973.134 18818641.520 -15267009.147 10 0 60586 74700.00000 0 -9023155.787 20201585.007 -12712046.411 10 0 60586 75600.00000 0 -9766399.376 21396729.846 -9910402.093 10 0 60586 76500.00000 0 -10221006.130 22347184.873 -6916564.938 10 0 60586 77400.00000 0 -10415686.306 23002797.139 -3788675.332 10 0 60586 78300.00000 0 -10389085.145 23322296.865 -587396.040 10 0 60586 79200.00000 0 -10187903.598 23275086.465 2625260.285 10 0 60586 80100.00000 0 -9864693.514 22842600.001 5787124.280 10 0 60586 81000.00000 0 -9475420.973 22019177.597 8837061.212 10 0 60586 81900.00000 0 -9076900.476 20812419.399 11716138.363 10 0 60586 82800.00000 0 -8724207.548 19243005.200 14368747.076 10 0 60586 83700.00000 0 -8468177.608 17343987.650 16743659.289 10 0 60586 84600.00000 0 -8353095.094 15159588.285 18794999.801 10 0 60586 85500.00000 0 -8414668.664 12743545.705 20483117.143 10 0 60587 0.00000 0 -8678376.419 10157083.367 21775337.754 10 0 60587 900.00000 0 -9158250.131 7466578.015 22646590.850 10 0 60587 1800.00000 0 -9856149.083 4741026.704 23079891.220 10 0 60587 2700.00000 0 -10761555.099 2049410.351 23066673.376 10 0 60587 3600.00000 0 -11851898.487 -541935.875 22606968.668 10 0 60587 4500.00000 0 -13093403.437 -2971839.785 21709421.943 10 0 60587 5400.00000 0 -14442419.979 -5186594.051 20391146.003 10 0 60587 6300.00000 0 -15847189.466 -7141948.262 18677414.878 10 0 60587 7200.00000 0 -17249972.303 -8804708.722 16601199.745 10 0 60587 8100.00000 0 -18589450.984 -10153879.201 14202554.208 10 0 60587 9000.00000 0 -19803309.323 -11181294.311 11527858.622 10 0 60587 9900.00000 0 -20830880.363 -11891717.966 8628936.237 10 0 60587 10800.00000 0 -21615751.582 -12302401.638 5562056.793 10 0 60587 11700.00000 0 -22108216.775 -12442119.894 2386846.056 10 0 60587 12600.00000 0 -22267469.522 -12349723.122 -834877.658 10 0 60587 13500.00000 0 -22063443.414 -12072268.281 -4040316.870 10 0 60587 14400.00000 0 -21478218.688 -11662807.081 -7166933.470 10 0 60587 15300.00000 0 -20506933.199 -11177926.209 -10153686.607 10 0 60587 16200.00000 0 -19158156.792 -10675145.412 -12942243.837 10 0 60587 17100.00000 0 -17453711.266 -10210285.692 -15478139.827 10 0 60587 18000.00000 0 -15427942.142 -9834921.432 -17711857.977 10 0 60587 18900.00000 0 -13126472.220 -9594026.649 -19599812.051 10 0 60587 19800.00000 0 -10604489.276 -9523917.065 -21105207.381 10 0 60587 20700.00000 0 -7924640.405 -9650576.711 -22198763.877 10 0 60587 21600.00000 0 -5154622.154 -9988440.821 -22859286.459 10 0 60587 22500.00000 0 -2364568.408 -10539686.868 -23074071.955 10 0 60587 23400.00000 0 375653.760 -11294063.420 -22839145.147 10 0 60587 24300.00000 0 2999126.695 -12229263.278 -22159320.397 10 0 60587 25200.00000 0 5444431.125 -13311823.956 -21048088.901 10 0 60587 26100.00000 0 7657955.611 -14498516.125 -19527335.226 10 0 60587 27000.00000 0 9595871.342 -15738160.034 -17626890.137 10 0 60587 27900.00000 0 11225691.774 -16973792.037 -15383929.885 10 0 60587 28800.00000 0 12527354.451 -18145088.866 -12842235.043 10 0 60587 29700.00000 0 13493782.761 -19190946.899 -10051324.501 10 0 60587 30600.00000 0 14130907.346 -20052107.571 -7065482.455 10 0 60587 31500.00000 0 14457149.492 -20673718.671 -3942698.075 10 0 60587 32400.00000 0 14502391.220 -21007724.424 -743538.878 10 0 60587 33300.00000 0 14306477.913 -21014984.881 2470020.201 10 0 60587 34200.00000 0 13917318.426 -20667036.803 5635789.516 10 0 60587 35100.00000 0 13388663.851 -19947423.423 8692556.660 10 0 60587 36000.00000 0 12777658.888 -18852538.503 11581255.514 10 0 60587 36900.00000 0 12142268.655 -17391950.251 14246090.968 10 0 60587 37800.00000 0 11538688.315 -15588191.998 16635599.077 10 0 60587 38700.00000 0 11018843.208 -13476028.257 18703623.805 10 0 60587 39600.00000 0 10628083.028 -11101225.984 20410193.175 10 0 60587 40500.00000 0 10403165.469 -8518880.836 21722279.503 10 0 60587 41400.00000 0 10370612.784 -5791365.978 22614430.396 10 0 60587 42300.00000 0 10545509.534 -2985986.253 23069259.288 10 0 60587 43200.00000 0 10930791.903 -172432.354 23077786.541 10 0 60587 44100.00000 0 11517059.089 2579862.126 22639624.386 10 0 60587 45000.00000 0 12282916.054 5204353.640 21763001.460 10 0 60587 45900.00000 0 13195835.296 7639904.497 20464625.147 10 0 60587 46800.00000 0 14213503.850 9833078.623 18769382.641 10 0 60587 47700.00000 0 15285601.576 11740122.626 16709884.395 10 0 60587 48600.00000 0 16355938.347 13328549.843 14325856.540 10 0 60587 49500.00000 0 17364862.289 14578260.829 11663391.803 10 0 60587 50400.00000 0 18251838.941 15482152.444 8774071.538 10 0 60587 51300.00000 0 18958093.090 16046188.821 5713974.396 10 0 60587 52200.00000 0 19429201.411 16288929.959 2542589.960 10 0 60587 53100.00000 0 19617525.079 16240536.736 -678341.713 10 0 60587 54000.00000 0 19484377.562 15941293.651 -3886041.612 10 0 60587 54900.00000 0 19001833.392 15439711.627 -7017929.689 10 0 60587 55800.00000 0 18154098.673 14790291.653 -10012863.397 10 0 60587 56700.00000 0 16938382.681 14051045.111 -12812350.752 10 0 60587 57600.00000 0 15365231.292 13280877.468 -15361712.221 10 0 60587 58500.00000 0 13458306.291 12536948.169 -17611166.653 10 0 60587 59400.00000 0 11253618.580 11872120.629 -19516818.339 10 0 60587 60300.00000 0 8798246.978 11332612.272 -21041524.529 10 0 60587 61200.00000 0 6148596.508 10955945.635 -22155625.562 10 0 60587 62100.00000 0 3368269.779 10769288.275 -22837523.014 10 0 60587 63000.00000 0 525641.447 10788252.054 -23074094.735 10 0 60587 63900.00000 0 -2308761.833 11016202.301 -22860939.286 10 0 60587 64800.00000 0 -5064965.759 11444105.160 -22202446.030 10 0 60587 65700.00000 0 -7676223.755 12050918.226 -21111690.755 10 0 60587 66600.00000 0 -10081551.845 12804506.330 -19610160.333 10 0 60587 67500.00000 0 -12228018.069 13663042.011 -17727313.256 10 0 60587 68400.00000 0 -14072692.362 14576829.869 -15499986.088 10 0 60587 69300.00000 0 -15584177.528 15490476.296 -12971658.756 10 0 60587 70200.00000 0 -16743659.970 16345311.928 -10191594.213 10 0 60587 71100.00000 0 -17545439.184 17081963.953 -7213870.155 10 0 60587 72000.00000 0 -17996916.960 17642969.598 -4096322.420 10 0 60587 72900.00000 0 -18118049.791 17975320.938 -899421.042 10 0 60587 73800.00000 0 -17940290.223 18032834.517 2314899.100 10 0 60587 74700.00000 0 -17505063.882 17778247.044 5484430.505 10 0 60587 75600.00000 0 -16861847.738 17184950.194 8547885.601 10 0 60587 76500.00000 0 -16065931.305 16238292.780 11446067.450 10 0 60587 77400.00000 0 -15175954.949 14936396.625 14122997.103 10 0 60587 78300.00000 0 -14251328.217 13290452.501 16526977.337 10 0 60587 79200.00000 0 -13349635.460 11324483.793 18611573.835 10 0 60587 80100.00000 0 -12524136.167 9074587.147 20336496.533 10 0 60587 81000.00000 0 -11821463.237 6587680.497 21668365.755 10 0 60587 81900.00000 0 -11279614.135 3919808.653 22581349.697 10 0 60587 82800.00000 0 -10926317.929 1134074.491 23057661.949 10 0 60587 83700.00000 0 -10777845.923 -1701721.132 23087909.960 10 0 60587 84600.00000 0 -10838315.703 -4517635.718 22671287.649 10 0 60587 85500.00000 0 -11099518.427 -7244234.426 21815607.750 10 0 60588 0.00000 0 -11541277.888 -9815224.628 20537172.149 10 0 60588 900.00000 0 -12132328.427 -12169969.615 18860480.215 10 0 60588 1800.00000 0 -12831676.371 -14255774.744 16817780.487 10 0 60588 2700.00000 0 -13590390.799 -16029855.951 14448469.822 10 0 60588 3600.00000 0 -14353749.727 -17460904.844 11798351.065 10 0 60588 4500.00000 0 -15063652.970 -18530185.510 8918761.039 10 0 60588 5400.00000 0 -15661200.679 -19232115.669 5865584.362 10 0 60588 6300.00000 0 -16089328.595 -19574306.324 2698171.261 10 0 60588 7200.00000 0 -16295387.689 -19577056.886 -521819.786 10 0 60588 8100.00000 0 -16233557.395 -19272326.003 -3731631.657 10 0 60588 9000.00000 0 -15866987.909 -18702220.967 -6868645.814 10 0 60588 9900.00000 0 -15169578.200 -17917069.580 -9871621.440 10 0 60588 10800.00000 0 -14127311.637 -16973156.748 -12681910.361 10 0 60588 11700.00000 0 -12739090.034 -15930222.844 -15244622.013 10 0 60588 12600.00000 0 -11017028.627 -14848831.407 -17509713.617 10 0 60588 13500.00000 0 -8986197.742 -13787719.531 -19432982.530 10 0 60588 14400.00000 0 -6683820.978 -12801244.859 -20976939.993 10 0 60588 15300.00000 0 -4157963.194 -11937038.814 -22111548.285 10 0 60588 16200.00000 0 -1465763.529 -11233966.340 -22814806.531 10 0 60588 17100.00000 0 1328711.935 -10720478.854 -23073173.858 10 0 60588 18000.00000 0 4156907.140 -10413429.789 -22881822.259 10 0 60588 18900.00000 0 6948400.040 -10317401.832 -22244715.193 10 0 60588 19800.00000 0 9633603.399 -10424572.826 -21174511.660 10 0 60588 20700.00000 0 12146429.468 -10715124.108 -19692299.042 10 0 60588 21600.00000 0 14426807.718 -11158171.922 -17827161.412 10 0 60588 22500.00000 0 16422951.493 -11713180.442 -15615593.175 10 0 60588 23400.00000 0 18093280.529 -12331794.758 -13100770.862 10 0 60588 24300.00000 0 19407921.181 -12960014.750 -10331698.465 10 0 60588 25200.00000 0 20349724.227 -13540616.855 -7362243.944 10 0 60588 26100.00000 0 20914760.499 -14015720.784 -4250086.410 10 0 60588 27000.00000 0 21112276.537 -14329392.693 -1055594.942 10 0 60588 27900.00000 0 20964114.895 -14430175.327 2159339.068 10 0 60588 28800.00000 0 20503625.825 -14273439.200 5332493.554 10 0 60588 29700.00000 0 19774117.896 -13823456.794 8402508.811 10 0 60588 30600.00000 0 18826913.767 -13055113.580 11310059.756 10 0 60588 31500.00000 0 17719093.196 -11955184.970 13998985.871 10 0 60588 32400.00000 0 16511017.709 -10523126.312 16417358.466 10 0 60588 33300.00000 0 15263739.826 -8771343.049 18518466.294 10 0 60588 34200.00000 0 14036404.040 -6724929.386 20261702.112 10 0 60588 35100.00000 0 12883746.696 -4420885.307 21613334.725 10 0 60588 36000.00000 0 11853797.661 -1906842.857 22547152.992 10 0 60588 36900.00000 0 10985878.356 760647.621 23044970.356 10 0 60588 37800.00000 0 10308978.672 3518202.800 23096980.705 10 0 60588 38700.00000 0 9840580.012 6297979.665 22701958.666 10 0 60588 39600.00000 0 9585973.688 9030241.202 21867299.799 10 0 60588 40500.00000 0 9538103.875 11646010.744 20608898.686 10 0 60588 41400.00000 0 9677942.954 14079706.986 18950865.571 10 0 60588 42300.00000 0 9975385.191 16271651.699 16925084.912 10 0 60588 43200.00000 0 10390623.115 18170346.591 14570622.166 10 0 60588 44100.00000 0 10875950.570 19734424.455 11932988.017 10 0 60588 45000.00000 0 11377918.021 20934192.386 9063272.362 10 0 60588 45900.00000 0 11839750.172 21752701.276 6017163.289 10 0 60588 46800.00000 0 12203924.035 22186295.187 2853869.111 10 0 60588 47700.00000 0 12414797.867 22244615.863 -365035.842 10 0 60588 48600.00000 0 12421178.318 21950060.754 -3576818.851 10 0 60588 49500.00000 0 12178715.024 21336716.392 -6718825.293 10 0 60588 50400.00000 0 11652018.625 20448811.661 -9729718.292 10 0 60588 51300.00000 0 10816409.673 19338756.512 -12550695.458 10 0 60588 52200.00000 0 9659221.573 18064849.851 -15126656.901 10 0 60588 53100.00000 0 8180599.863 16688754.852 -17407299.650 10 0 60588 54000.00000 0 6393761.957 15272850.074 -19348115.314 10 0 60588 54900.00000 0 4324704.857 13877570.127 -20911270.086 10 0 60588 55800.00000 0 2011372.279 12558849.800 -22066348.951 10 0 60588 56700.00000 0 -497684.042 11365780.798 -22790949.154 10 0 60588 57600.00000 0 -3145092.451 10338580.603 -23071111.476 10 0 60588 58500.00000 0 -5866823.311 9506959.061 -22901581.467 10 0 60588 59400.00000 0 -8594633.528 8888950.829 -22285896.523 10 0 60588 60300.00000 0 -11258690.805 8490261.422 -21236298.352 10 0 60588 61200.00000 0 -13790267.516 8304152.461 -19773473.979 10 0 60588 62100.00000 0 -16124391.677 8311868.583 -17926131.827 10 0 60588 63000.00000 0 -18202344.854 8483585.466 -15730422.591 10 0 60588 63900.00000 0 -19973903.734 8779836.518 -13229217.601 10 0 60588 64800.00000 0 -21399233.369 9153355.756 -10471259.904 10 0 60588 65700.00000 0 -22450355.062 9551257.273 -7510205.618 10 0 60588 66600.00000 0 -23112129.974 9917457.976 -4403574.974 10 0 60588 67500.00000 0 -23382719.949 10195240.561 -1211633.914 10 0 60588 68400.00000 0 -23273508.907 10329848.416 2003771.876 10 0 60588 69300.00000 0 -22808490.520 10271003.309 5180407.999 10 0 60588 70200.00000 0 -22023149.848 9975240.481 8256844.894 10 0 60588 71100.00000 0 -20962887.271 9407963.738 11173631.644 10 0 60588 72000.00000 0 -19681051.513 8545135.125 13874428.486 10 0 60588 72900.00000 0 -18236664.215 7374528.990 16307077.569 10 0 60588 73800.00000 0 -16691930.663 5896498.322 18424592.930 10 0 60588 74700.00000 0 -15109639.610 4124221.168 20186052.212 10 0 60588 75600.00000 0 -13550559.236 2083416.110 21557374.555 10 0 60588 76500.00000 0 -12070936.174 -188462.781 22511971.048 10 0 60588 77400.00000 0 -10720200.195 -2643520.032 23031256.226 10 0 60588 78300.00000 0 -9538968.774 -5225150.671 23105011.296 10 0 60588 79200.00000 0 -8557433.613 -7870140.945 22731592.086 10 0 60588 80100.00000 0 -7794195.963 -10511053.621 21917977.062 10 0 60588 81000.00000 0 -7255599.381 -13078801.732 20679653.309 10 0 60588 81900.00000 0 -6935588.528 -15505306.383 19040340.962 10 0 60588 82800.00000 0 -6816101.088 -17726129.984 17031559.337 10 0 60588 83700.00000 0 -6867977.869 -19682976.478 14692040.931 10 0 60588 84600.00000 0 -7052354.504 -21325954.662 12067002.346 10 0 60588 85500.00000 0 -7322477.624 -22615509.594 9207284.314 10 0 60589 0.00000 0 -7625870.024 -23523940.077 6168376.181 10 0 60589 900.00000 0 -7906754.041 -24036437.418 3009341.108 10 0 60589 1800.00000 0 -8108629.999 -24151598.802 -208333.314 10 0 60589 2700.00000 0 -8176900.113 -23881393.562 -3421941.733 10 0 60589 3600.00000 0 -8061424.525 -23250580.882 -6568796.483 10 0 60589 4500.00000 0 -7718898.948 -22295603.113 -9587467.723 10 0 60589 5400.00000 0 -7114950.445 -21063000.916 -12419001.944 10 0 60589 6300.00000 0 -6225859.658 -19607417.474 -15008092.958 10 0 60589 7200.00000 0 -5039833.907 -17989276.979 -17304180.473 10 0 60589 8100.00000 0 -3557774.909 -16272236.790 -19262452.955 10 0 60589 9000.00000 0 -1793506.868 -14520522.373 -20844733.797 10 0 60589 9900.00000 0 226545.928 -12796259.065 -22020232.469 10 0 60589 10800.00000 0 2464219.032 -11156914.431 -22766145.601 10 0 60589 11700.00000 0 4870969.202 -9652959.793 -23068096.330 10 0 60589 12600.00000 0 7389679.620 -8325849.578 -22920403.923 10 0 60589 13500.00000 0 9956832.665 -7206402.977 -22326179.343 10 0 60589 14400.00000 0 12504958.518 -6313654.708 -21297246.172 10 0 60589 15300.00000 0 14965256.516 -5654221.305 -19853889.809 10 0 60589 16200.00000 0 17270279.309 -5222207.151 -18024441.351 10 0 60589 17100.00000 0 19356567.759 -4999651.443 -15844705.724 10 0 60589 18000.00000 0 21167126.962 -4957494.386 -13357246.603 10 0 60589 18900.00000 0 22653641.065 -5057019.163 -10610543.277 10 0 60589 19800.00000 0 23778335.887 -5251706.455 -7658036.876 10 0 60589 20700.00000 0 24515413.411 -5489421.357 -4557085.324 10 0 60589 21600.00000 0 24852000.489 -5714839.037 -1367847.831 10 0 60589 22500.00000 0 24788574.412 -5872006.082 1847879.259 10 0 60589 23400.00000 0 24338849.860 -5906929.341 5027852.783 10 0 60589 24300.00000 0 23529133.984 -5770083.474 8110576.670 10 0 60589 25200.00000 0 22397178.202 -5418732.340 11036477.195 10 0 60589 26100.00000 0 20990575.705 -4818967.410 13749037.965 10 0 60589 27000.00000 0 19364772.033 -3947378.451 16195874.136 10 0 60589 27900.00000 0 17580771.443 -2792287.004 18329726.733 10 0 60589 28800.00000 0 15702633.848 -1354491.168 20109359.527 10 0 60589 29700.00000 0 13794865.267 352509.806 21500342.793 10 0 60589 30600.00000 0 11919808.677 2302821.576 22475710.242 10 0 60589 31500.00000 0 10135142.065 4458980.365 23016477.490 10 0 60589 32400.00000 0 8491585.998 6773266.147 23112012.660 10 0 60589 33300.00000 0 7030914.612 9189451.576 22760251.995 10 0 60589 34200.00000 0 5784351.841 11644916.885 21967755.719 10 0 60589 35100.00000 0 4771419.224 14073045.935 20749601.919 10 0 60589 36000.00000 0 3999283.495 16405806.487 19129118.792 10 0 60589 36900.00000 0 3462631.919 18576409.574 17137458.407 10 0 60589 37800.00000 0 3144081.694 20521938.686 14813017.945 10 0 60589 38700.00000 0 3015107.612 22185839.843 12200717.387 10 0 60589 39600.00000 0 3037450.339 23520168.261 9351145.602 10 0 60589 40500.00000 0 3164947.153 24487496.680 6319589.827 10 0 60589 41400.00000 0 3345708.552 25062403.732 3164966.283 10 0 60589 42300.00000 0 3524548.777 25232477.862 -51327.589 10 0 60589 43200.00000 0 3645566.713 24998792.460 -3266616.633 10 0 60589 44100.00000 0 3654766.426 24375830.293 -6418182.832 10 0 60589 45000.00000 0 3502604.193 23390858.850 -9444505.868 10 0 60589 45900.00000 0 3146351.542 22082782.039 -12286483.315 10 0 60589 46800.00000 0 2552171.370 20500516.383 -14888604.588 10 0 60589 47700.00000 0 1696816.430 18700960.651 -17200053.646 10 0 60589 48600.00000 0 568875.779 16746645.520 -19175717.083 10 0 60589 49500.00000 0 -830485.582 14703163.678 -20777076.462 10 0 60589 50400.00000 0 -2487326.631 12636490.125 -21972966.456 10 0 60589 51300.00000 0 -4375279.104 10610306.831 -22740183.527 10 0 60589 52200.00000 0 -6456430.757 8683445.284 -23063933.357 10 0 60589 53100.00000 0 -8682705.735 6907554.865 -22938108.808 10 0 60589 54000.00000 0 -10997683.484 5325094.735 -22365393.970 10 0 60589 54900.00000 0 -13338779.169 3967732.564 -21357193.470 10 0 60589 55800.00000 0 -15639693.426 2855215.586 -19933389.867 10 0 60589 56700.00000 0 -17833028.250 1994759.059 -18121935.353 10 0 60589 57600.00000 0 -19852959.287 1380974.941 -15958287.176 10 0 60589 58500.00000 0 -21637852.790 996340.779 -13484699.202 10 0 60589 59400.00000 0 -23132718.393 812185.921 -10749384.635 10 0 60589 60300.00000 0 -24291396.177 790150.677 -7805567.199 10 0 60589 61200.00000 0 -25078388.028 884054.442 -4710440.069 10 0 60589 62100.00000 0 -25470258.514 1042092.088 -1524053.282 10 0 60589 63000.00000 0 -25456548.724 1209264.697 1691848.586 10 0 60589 63900.00000 0 -25040166.904 1329941.492 4875016.005 10 0 60589 64800.00000 0 -24237241.453 1350444.911 7963888.764 10 0 60589 65700.00000 0 -23076444.043 1221550.367 10898772.671 10 0 60589 66600.00000 0 -21597812.213 900796.247 13622976.977 10 0 60589 67500.00000 0 -19851121.131 354507.941 16083892.005 10 0 60589 68400.00000 0 -17893872.274 -440548.267 18233987.758 10 0 60589 69300.00000 0 -15788982.073 -1495950.290 20031715.889 10 0 60589 70200.00000 0 -13602265.436 -2810895.115 21442299.268 10 0 60589 71100.00000 0 -11399817.015 -4371994.402 22438395.343 10 0 60589 72000.00000 0 -9245397.150 -6153600.605 23000621.561 10 0 60589 72900.00000 0 -7197929.047 -8118651.930 23117933.342 10 0 60589 73800.00000 0 -5309209.360 -10220003.496 22787847.362 10 0 60589 74700.00000 0 -3621925.914 -12402192.065 22016505.272 10 0 60589 75600.00000 0 -2168064.045 -14603563.973 20818575.492 10 0 60589 76500.00000 0 -967767.594 -16758680.504 19216993.305 10 0 60589 77400.00000 0 -28702.316 -18800903.010 17242542.238 10 0 60589 78300.00000 0 654050.989 -20665051.823 14933282.571 10 0 60589 79200.00000 0 1097568.026 -22290029.018 12333835.780 10 0 60589 80100.00000 0 1330133.998 -23621295.517 9494536.739 10 0 60589 81000.00000 0 1389816.726 -24613098.123 6470468.494 10 0 60589 81900.00000 0 1322619.216 -25230351.606 3320397.254 10 0 60589 82800.00000 0 1180289.381 -25450094.778 105627.923 10 0 60589 83700.00000 0 1017879.898 -25262457.013 -3111197.284 10 0 60589 84600.00000 0 891162.612 -24671092.204 -6267332.796 10 0 60589 85500.00000 0 854008.742 -23693059.850 -9301170.637 99